Time,TemperatureF,DewpointF,PressureIn,WindDirection,WindDirectionDegrees,WindSpeedMPH,WindSpeedGustMPH,Humidity,HourlyPrecipIn,Conditions,Clouds,dailyrainin,SoftwareType,DateUTC
2013-08-01 20:44:00,71.7,55.1,30.03,North,0,0.0,0.0,56,0.00,,,0.00,WUHU216HW,2013-08-02 01:44:00,
2013-08-01 20:50:00,69.9,54.5,30.03,North,0,0.0,0.0,58,0.00,,,0.00,WUHU216HW,2013-08-02 01:50:00,
2013-08-01 20:55:00,68.7,54.3,30.03,North,0,0.0,0.0,60,0.00,,,0.00,WUHU216HW,2013-08-02 01:55:00,
2013-08-01 21:00:00,67.8,53.8,30.04,North,0,0.0,0.0,61,0.00,,,0.00,WUHU216HW,2013-08-02 02:00:00,
2013-08-01 21:05:00,66.7,53.7,30.03,North,0,0.0,0.0,63,0.00,,,0.00,WUHU216HW,2013-08-02 02:05:00,
2013-08-01 21:10:00,66.2,53.6,30.04,North,0,0.0,0.0,64,0.00,,,0.00,WUHU216HW,2013-08-02 02:10:00,
2013-08-01 21:15:00,65.8,53.7,30.04,North,0,0.0,0.0,65,0.00,,,0.00,WUHU216HW,2013-08-02 02:15:00,
2013-08-01 21:20:00,65.1,53.4,30.04,North,0,0.0,0.0,66,0.00,,,0.00,WUHU216HW,2013-08-02 02:20:00,
2013-08-01 21:26:00,64.7,53.5,30.05,North,0,0.0,0.0,67,0.00,,,0.00,WUHU216HW,2013-08-02 02:26:00,
2013-08-01 21:31:00,64.2,53.8,30.05,North,0,0.0,0.0,69,0.00,,,0.00,WUHU216HW,2013-08-02 02:31:00,
2013-08-01 21:37:00,64.2,53.4,30.06,North,0,0.0,0.0,68,0.00,,,0.00,WUHU216HW,2013-08-02 02:37:00,
2013-08-01 21:42:00,64.2,53.4,30.06,North,0,0.0,0.0,68,0.00,,,0.00,WUHU216HW,2013-08-02 02:42:00,
2013-08-01 21:47:00,64.0,52.8,30.06,North,0,0.0,0.0,67,0.00,,,0.00,WUHU216HW,2013-08-02 02:47:00,
2013-08-01 21:52:00,63.6,52.5,30.05,North,0,0.0,0.0,67,0.00,,,0.00,WUHU216HW,2013-08-02 02:52:00,
2013-08-01 21:57:00,63.6,52.9,30.06,North,0,0.0,0.0,68,0.00,,,0.00,WUHU216HW,2013-08-02 02:57:00,
2013-08-01 22:02:00,63.3,52.9,30.06,North,0,0.0,0.0,69,0.00,,,0.00,WUHU216HW,2013-08-02 03:02:00,
2013-08-01 22:07:00,63.1,53.2,30.06,North,0,0.0,0.0,70,0.00,,,0.00,WUHU216HW,2013-08-02 03:07:00,
2013-08-01 22:12:00,63.1,53.6,30.06,North,0,0.0,0.0,71,0.00,,,0.00,WUHU216HW,2013-08-02 03:12:00,
2013-08-01 22:17:00,62.9,53.7,30.06,North,0,0.0,0.0,72,0.00,,,0.00,WUHU216HW,2013-08-02 03:17:00,
2013-08-01 22:22:00,62.7,53.9,30.06,North,0,0.0,0.0,73,0.00,,,0.00,WUHU216HW,2013-08-02 03:22:00,
2013-08-01 22:27:00,62.4,53.6,30.06,North,0,0.0,0.0,73,0.00,,,0.00,WUHU216HW,2013-08-02 03:27:00,
2013-08-01 22:32:00,61.8,53.4,30.06,North,0,0.0,0.0,74,0.00,,,0.00,WUHU216HW,2013-08-02 03:32:00,
2013-08-01 22:37:00,61.5,53.1,30.06,North,0,0.0,0.0,74,0.00,,,0.00,WUHU216HW,2013-08-02 03:37:00,
2013-08-01 22:42:00,61.1,52.4,30.06,North,0,0.0,0.0,73,0.00,,,0.00,WUHU216HW,2013-08-02 03:42:00,
2013-08-01 22:47:00,60.9,52.3,30.06,North,0,0.0,0.0,73,0.00,,,0.00,WUHU216HW,2013-08-02 03:47:00,
2013-08-01 22:52:00,60.9,52.3,30.05,North,0,0.0,0.0,73,0.00,,,0.00,WUHU216HW,2013-08-02 03:52:00,
2013-08-01 22:57:00,60.9,52.6,30.06,North,0,0.0,0.0,74,0.00,,,0.00,WUHU216HW,2013-08-02 03:57:00,
2013-08-01 23:01:00,60.9,52.8,30.06,North,0,0.0,0.0,74,0.00,,,0.00,WUHU216HW,2013-08-02 04:01:00,
2013-08-01 23:02:00,61.1,52.8,30.06,North,0,0.0,0.0,74,0.00,,,0.00,WUHU216HW,2013-08-02 04:02:00,
2013-08-01 23:07:00,61.1,52.1,30.06,North,0,0.0,0.0,72,0.00,,,0.00,WUHU216HW,2013-08-02 04:07:00,
2013-08-01 23:12:00,61.1,52.1,30.06,North,0,0.0,0.0,72,0.00,,,0.00,WUHU216HW,2013-08-02 04:12:00,
2013-08-01 23:17:00,60.9,51.9,30.06,North,0,0.0,0.0,72,0.00,,,0.00,WUHU216HW,2013-08-02 04:17:00,
2013-08-01 23:22:00,60.6,51.9,30.06,North,0,0.0,0.0,73,0.00,,,0.00,WUHU216HW,2013-08-02 04:22:00,
2013-08-01 23:27:00,60.6,52.3,30.05,NNE,23,0.0,0.0,74,0.00,,,0.00,WUHU216HW,2013-08-02 04:27:00,
2013-08-01 23:32:00,60.6,52.3,30.05,NNE,23,0.0,0.0,74,0.00,,,0.00,WUHU216HW,2013-08-02 04:32:00,
2013-08-01 23:37:00,60.4,52.1,30.05,North,0,0.0,0.0,74,0.00,,,0.00,WUHU216HW,2013-08-02 04:37:00,
2013-08-01 23:42:00,60.0,51.8,30.06,North,0,0.0,0.0,74,0.00,,,0.00,WUHU216HW,2013-08-02 04:42:00,
2013-08-01 23:47:00,59.9,51.6,30.05,North,0,0.0,0.0,74,0.00,,,0.00,WUHU216HW,2013-08-02 04:47:00,
2013-08-01 23:52:00,59.7,51.8,30.05,NNE,23,0.0,0.0,75,0.00,,,0.00,WUHU216HW,2013-08-02 04:52:00,
2013-08-01 23:57:00,59.9,52.3,30.05,NNE,23,0.0,0.0,76,0.00,,,0.00,WUHU216HW,2013-08-02 04:57:00,